Terug naar catalogus

USA 279

ActiefMilitairGEO
NORAD 42949·PAYLOAD·🇺🇸 United States

Gelanceerd Oct 15, 2017 vanaf Cape Canaveral Space Force Station

Loading…

TLE

VersSource: Mike McCants

Epoch: Sep 14, 2026, 20:52 UTC

1 42949U 17066A   26257.86979159  .00000000  00000-0  00000-0 0    07
2 42949   3.4231  39.0186 0003867 107.2470 252.8141  1.00270000 18344

Volg USA 279 in realtime met AllMySat

Download on the App Store